Retour au catalogue

STARLINK-11611

ActifCommunicationsVLEO
NORAD 63138·PAYLOAD·🇺🇸 United States

Lancé Mar 3, 2025 depuis Cape Canaveral Space Force Station

Loading…

Prochains Passages (prochaines 24 heures)

TLE

FraisSource: CelesTrak SupGP

Époque: Sep 15, 2026, 03:29 UTC

1 63138C 25043G   26258.14562500 -.00029959  00000+0 -23266-3 0  2586
2 63138  43.0004 188.6200 0001494 271.8698 315.9896 15.70856611    10

Suivez STARLINK-11611 en temps réel avec AllMySat

Download on the App Store